Regional Weather Roundup
Issued by NWS

Home | Current Version | Previous Version | Graphics & Text | Print | Product List | Glossary On
Versions: 1 2 3 4 5 6 7 8 9 10 11 12 13 14 15 16 17 18 19 20 21 22 23 24 25 26 27 28 29 30 31 32 33 34 35 36 37 38 39 40 41 42 43 44 45 46 47 48 49 50
000
ASUS43 KLOT 311903
RWRIL

ILLINOIS REGIONAL WEATHER ROUNDUP
NATIONAL WEATHER SERVICE CHICAGO/ROMEOVILLE IL
200 PM CDT WED AUG 31 2016

NOTE: "FAIR" INDICATES FEW OR NO CLOUDS BELOW 12,000 FEET WITH NO
SIGNIFICANT WEATHER AND/OR OBSTRUCTIONS TO VISIBILITY.

* THESE STATIONS ARE NOT UNDER NWS QUALITY CONTROL. THEY ALSO MAY NOT
  REPORT WEATHER SUCH AS PRECIPITATION OR FOG.

ILZ001-002-007-009-015-016-024-312000-
NORTHWEST ILLINOIS

CITY           SKY/WX    TMP DP  RH WIND       PRES   REMARKS
MOLINE         MOSUNNY   79  65  62 N10       30.09F HX  81
STERLING*      MOSUNNY   79  66  64 N9        30.10S HX  81
SAVANNA*       MOSUNNY   77  61  58 N8        30.11S
$$

ILZ003-004-008-010-011-017-018-312000-
NORTH CENTRAL ILLINOIS

CITY           SKY/WX    TMP DP  RH WIND       PRES   REMARKS
ROCKFORD       MOSUNNY   76  60  57 N8        30.10F
FREEPORT*      MOSUNNY   74  60  61 N5        30.13S
ROCHELLE*      CLOUDY    74  63  67 N10       30.11R
$$

ILZ005-006-012>014-019>023-312000-
NORTHEAST ILLINOIS

CITY           SKY/WX    TMP DP  RH WIND       PRES   REMARKS
CHICAGO-OHARE  CLOUDY    75  61  61 NE14      30.08S
CHICAGO-MIDWAY PTSUNNY   76  60  57 N14       30.07S
AURORA         MOSUNNY   79  64  60 N9        30.08S HX  81
LANSING*       MOSUNNY   74  63  69 N12G20    30.07S
JOLIET*        CLOUDY    78  64  60 NE7       30.07S HX  80
WAUKEGAN       MOSUNNY   73  56  54 NE12G21   30.09S
DUPAGE AIRPORT MOSUNNY   77  61  57 N12       30.08S
KANKAKEE*      PTSUNNY   79  65  61 N10G17    30.05S HX  81
WHEELING       CLOUDY    75  60  59 NE12G24   30.09F
MORRIS*        CLOUDY    77  65  65 CALM      30.05S
ROMEOVILLE*    CLOUDY    76  66  70 NE8       30.07S
NORTHERLY ISL    N/A     71  63  75 N13         N/A
$$

LMZ740>746-312000-
SOUTHERN LAKE MICHIGAN

STATION/POSITION SKY/WX   TEMP    WIND        PRES    VSBY  WAVE
                          AIR SEA DIR/SP/G                  HT/PER
                          (F)     (DEG/KT/KT) (MB)    (MI)  (FT/S)
SOUTHERN BUOY              70 75   20/ 17/ 21 1017.6          5/ 6
WILMETTE HARBOR            69 72   20/ 16/ 21   N/A           6/ 6
HARRISON CRIB              72     360/ 20/ 23   N/A
BURNHAM HARBOR             73     330/ 14/ 16   N/A
CALUMET HARBOR             74     340/ 13/ 17 1017.9R
BURNS HARBOR               72     360/ 14/ 17 1018.3R
MICHIGAN CITY              71     340/ 17/ 19   N/A
MICHIGAN CITY 6N           72 70  360/ 16/ 19   N/A           5/ 5
ST. JOSEPH                 71 72  350/ 17/ 21 1016.6F         5/ 5
$$

ILZ025>027-034>036-040-047-049-050-058-095>099-312000-
WEST-CENTRAL ILLINOIS

CITY           SKY/WX    TMP DP  RH WIND       PRES   REMARKS
QUINCY         MOSUNNY   79  69  71 NW9       30.07F HX  81
GALESBURG*     CLOUDY    77  66  69 N9        30.09F
MACOMB*        PTSUNNY   79  68  69 N10G18    30.10S HX  82
JACKSONVILLE*  CLOUDY    80  71  74 NW8G16    30.05S HX  83
PITTSFIELD*    CLOUDY    80  71  75 NW9       30.07F HX  83
$$

ILZ028>032-037-038-041>044-048-051>054-059>061-312000-
CENTRAL ILLINOIS

CITY           SKY/WX    TMP DP  RH WIND       PRES   REMARKS
PONTIAC        MOSUNNY   80  70  72 N9        30.06S HX  83
BLOOMINGTON    PTSUNNY   81  70  69 N15       30.06S HX  84
DECATUR        CLOUDY    84  70  62 N9        30.03F HX  88
PEORIA         PTSUNNY   78  70  76 N8        30.06S HX  80
LACON*         MOSUNNY   76  65  69 N9        30.07S
LINCOLN*       MOSUNNY   83  69  62 N5        30.03F HX  87
SPRINGFIELD    CLOUDY    84  71  65 NW9       30.04S HX  89
TAYLORVILLE    CLOUDY    81  71  70 N9        30.03S HX  85
$$

ILZ033-039-045-046-055>057-062-063-312000-
EAST-CENTRAL ILLINOIS

CITY           SKY/WX    TMP DP  RH WIND       PRES   REMARKS
CHAMPAIGN      PTSUNNY   83  71  67 NW8       30.03F HX  87
RANTOUL*       CLOUDY    83  72  70 NW8G16    30.03S HX  88
MATTOON        MOSUNNY   84  68  58 N10       30.01F HX  87
PARIS*         MOSUNNY   84  72  67 NW5       30.01F HX  89
$$

ILZ079-100>102-312000-
SOUTHWEST ILLINOIS

CITY           SKY/WX    TMP DP  RH WIND       PRES   REMARKS
ALTON          HVY RAIN  70  68  94 E10G16    30.06R VSB 1
BELLEVILLE     MOSUNNY   85  71  62 NW10      30.00F HX  90
CAHOKIA*       PTSUNNY   85  69  58 NW10      30.02S HX  89
SPARTA*        PTSUNNY   83  73  72 CALM      30.03S HX  89
$$

ILZ064>066-069>071-074>076-080>082-084>086-088>090-092>094-312000-
SOUTH-CENTRAL ILLINOIS

CITY           SKY/WX    TMP DP  RH WIND       PRES   REMARKS
CARBONDALE     MOSUNNY   85  70  60 NW8       30.00F HX  89
EFFINGHAM*     PTSUNNY   84  73  68 NW6       30.02S HX  90
MARION         PTSUNNY   88  72  58 W9        30.01F HX  94
MT. VERNON     MOSUNNY   84  70  61 N3        30.01F HX  88
CENTRALIA*     PTSUNNY   85  74  71 N7        30.00F HX  92
SALEM*         PTSUNNY   85  73  65 NE5       30.00F HX  92
METROPOLIS*    MOSUNNY   90  73  57 W6        29.99F HX  98
$$

ILZ067-068-072-073-078-083-087-091-312000-
SOUTHEAST ILLINOIS

CITY           SKY/WX    TMP DP  RH WIND       PRES   REMARKS
LAWRENCEVILLE  PTSUNNY   88  72  58 NW10      29.99F HX  94
FLORA*         MOSUNNY   84  75  72 NW3       30.00F HX  92
FAIRFIELD*     PTSUNNY   83  72  69 CALM      29.99F HX  87
HARRISBURG*    PTSUNNY   87  73  63 N8        30.00F HX  94
ROBINSON*      MOSUNNY   83  73  70 NW9       30.00F HX  89
CARMI*         MOSUNNY   86  73  65 NW6       29.99F HX  93
$$

ABBREVIATIONS USED IN REMARKS
   TC - TEMPERATURE IN CELSIUS
  WCI - WIND CHILL INDEX
   HX - HEAT INDEX
  VSB - VISIBILITY
$$





USA.gov is the U.S. government's official web portal to all federal, state and local government web resources and services.